[[{"header":{"parameterUnit":"m.s-1","parameterCategory":1,"la1":30.2991,"la2":30.254,"lo1":-89.0895,"lo2":-89.0444,"dy":0.0017,"dx":0.0017,"nx":28,"ny":28,"refTime":"2024-03-25T03:00:00:Z","depth":0,"parameterNumber":2,"parameterNumberName":"U-component_of_WINDS"},"data":[0,0,0,0,0,0,0,0,0,0,0,0,0,0,0,0,0,0,0,0,0,0,0,0,0,0,0,0,0,0,0,0,0,0,0,0,0,0,0,0,0,0,0,0,0,0,0,0,0,0,0,0,0,0,0,0,0,0,1.8445,1.8444,0,1.8378,1.8377,1.8376,1.8332,1.8332,1.8331,1.8331,1.8261,1.826,1.8258,0,0,0,0,0,0,0,0,0,0,0,0,0,1.8538,1.8536,1.8445,1.8444,1.8443,1.8378,1.8377,1.8376,1.8332,1.8331,1.8331,1.8331,1.8262,1.826,1.8258,0,0,0,0,0,0,0,0,0,0,0,0,0,1.8486,1.8536,1.8445,1.8414,1.841,1.8378,1.8377,1.8376,1.8332,1.8331,1.8331,1.8331,1.8263,1.826,1.8258,1.8252,0,0,1.8251,1.825,0,0,0,0,0,0,0,0,1.8489,1.8483,1.8419,1.8416,1.8412,1.8363,1.8384,1.8334,1.8332,1.8362,1.8331,1.833,1.8295,1.829,1.8279,1.8248,1.8245,1.825,1.8249,1.8248,1.8247,0,0,0,0,0,0,0,1.8493,1.8486,1.8418,1.8418,1.8414,1.8403,1.8396,1.8374,1.8332,1.8359,1.8356,1.8348,1.8293,1.8281,1.8277,1.8244,1.825,1.8248,1.8247,1.8246,1.8209,1.8209,0,0,0,0,0,0,1.8501,1.8489,1.842,1.8416,1.845,1.8402,1.8393,1.8379,1.8332,1.8324,1.8349,1.8346,1.8285,1.8279,1.8274,1.8265,1.8248,1.8246,1.8244,1.8208,1.8209,1.821,0,0,0,0,0,0,1.8504,1.8496,1.8423,1.8452,1.8442,1.8401,1.8385,1.8378,1.8365,1.8324,1.8316,1.8344,1.8285,1.8277,1.8258,1.8262,1.8245,1.8242,1.8208,1.8209,1.8209,1.8247,0,0,0,0,0,0,1.8506,1.8497,1.8493,1.8452,1.844,1.8408,1.8385,1.8377,1.8361,1.8358,1.8317,1.831,1.8284,1.8262,1.8256,1.8259,1.8241,1.8207,1.8208,1.8209,1.8245,1.8249,1.8252,0,0,0,0,0,1.851,1.8506,1.8493,1.8485,1.8435,1.8408,1.8402,1.8371,1.8362,1.8359,1.8333,1.8312,1.8263,1.826,1.8253,1.8255,1.8207,1.8208,1.8209,1.8244,1.8248,1.8252,0,0,0,0,0,0,1.8548,1.85,1.8485,1.8468,1.8443,1.8401,1.8395,1.8377,1.8353,1.8351,1.8315,1.8306,1.8291,1.8271,1.8269,1.8248,1.8233,1.8232,1.8262,1.8265,1.8269,1.8274,1.8239,0,0,0,0,0,1.8554,1.8536,1.8495,1.8484,1.8472,1.8436,1.8423,1.8403,1.8375,1.8364,1.8336,1.8311,1.829,1.8276,1.8255,1.8243,1.8234,1.8241,1.8244,1.8247,1.8247,1.8241,1.8244,1.8213,1.8213,1.8213,0,0,1.8567,1.8538,1.8529,1.8491,1.8469,1.8452,1.8427,1.841,1.8397,1.8361,1.8342,1.8321,1.829,1.8275,1.8267,1.8258,1.8254,1.8248,1.8251,1.8249,1.8243,1.8246,1.8248,1.8213,1.8213,1.8213,0,0,1.8581,1.8558,1.8546,1.8526,1.8493,1.847,1.8468,1.843,1.8415,1.8395,1.8369,1.8354,1.8318,1.8297,1.8282,1.8293,1.8274,1.8287,1.8305,1.83,1.8302,1.8304,1.8309,1.8312,1.8288,1.8288,1.8288,0,1.8601,1.8574,1.8543,1.8528,1.8512,1.8481,1.847,1.8451,1.8414,1.8404,1.8395,1.8351,1.8328,1.8309,1.8312,1.83,1.8298,1.8291,1.8304,1.8306,1.8307,1.8312,1.8314,1.829,1.8289,1.8289,1.8289,0,1.86,1.8582,1.8577,1.8543,1.8527,1.8514,1.8483,1.8471,1.8453,1.8431,1.8413,1.8384,1.8357,1.8351,1.8332,1.833,1.8326,1.8311,1.8295,1.8313,1.8317,1.8318,1.8292,1.8292,1.8291,1.8291,0,0,1.8634,1.8585,1.8584,1.8569,1.8533,1.8519,1.8506,1.848,1.8471,1.8447,1.8436,1.8408,1.8395,1.8379,1.8358,1.8353,1.8366,1.8339,1.8338,1.8346,1.8364,1.8375,1.8378,1.8353,1.8353,1.8353,1.8367,0,1.8643,1.8618,1.8591,1.8575,1.856,1.8531,1.852,1.8497,1.8477,1.8462,1.844,1.8421,1.8405,1.8395,1.8389,1.8366,1.8369,1.8364,1.8343,1.8343,1.8352,1.8379,1.8391,1.8404,1.8368,1.8368,1.8368,0,1.865,1.8629,1.8612,1.858,1.8572,1.8563,1.8539,1.8524,1.8498,1.8485,1.8468,1.8446,1.8432,1.8419,1.84,1.8397,1.8387,1.8375,1.8375,1.8371,1.8356,1.8377,1.8408,1.841,1.837,1.837,1.837,0,1.8677,1.8645,1.8631,1.8619,1.8581,1.8576,1.856,1.8534,1.8521,1.8501,1.8493,1.8471,1.8458,1.8442,1.8416,1.8408,1.8401,1.8384,1.839,1.839,1.8388,1.8389,1.8418,1.8382,1.8382,1.8382,1.8382,0,1.869,1.8681,1.8643,1.8635,1.8625,1.8596,1.8586,1.8568,1.8546,1.8534,1.8508,1.8498,1.8464,1.845,1.8429,1.8418,1.8412,1.8401,1.8396,1.8404,1.8405,1.8396,1.8395,1.8383,1.8382,1.8382,1.8382,0,1.8719,1.8693,1.8676,1.8643,1.8635,1.8629,1.86,1.8592,1.8572,1.8558,1.8552,1.8521,1.8504,1.8476,1.845,1.8437,1.8429,1.842,1.8438,1.8434,1.8442,1.8442,1.8466,1.8469,1.8431,1.8431,1.8432,0,1.8728,1.8721,1.8688,1.8679,1.8664,1.8649,1.8637,1.8609,1.8598,1.857,1.8565,1.8546,1.8529,1.8503,1.8478,1.8459,1.8449,1.8459,1.8446,1.8455,1.845,1.8451,1.8451,1.8462,1.8463,1.8463,1.8464,0,1.8749,1.8738,1.8721,1.8701,1.8688,1.8671,1.8652,1.8646,1.8614,1.8603,1.8585,1.8573,1.8548,1.8529,1.8507,1.8491,1.8473,1.8469,1.8469,1.8476,1.8487,1.8483,1.8447,1.8468,1.8467,1.8467,1.8467,1.8467,1.8768,1.8762,1.8738,1.8722,1.8706,1.869,1.8681,1.8661,1.8646,1.8624,1.8609,1.8593,1.857,1.8539,1.8525,1.8512,1.8504,1.8504,1.8504,1.8504,1.8508,1.849,1.8508,1.8508,1.8508,1.8507,1.8507,0,1.8789,1.8773,1.8758,1.8734,1.8722,1.8707,1.8687,1.8677,1.8664,1.8645,1.863,1.8611,1.8594,1.8569,1.8551,1.8546,1.8537,1.8542,1.8542,1.8539,1.8516,1.8518,1.8549,1.8549,1.8549,1.8549,1.8549,1.8549,1.8797,1.8786,1.8772,1.8754,1.8738,1.8723,1.8713,1.8699,1.8684,1.8664,1.8651,1.8635,1.8614,1.8595,1.8579,1.8572,1.8567,1.8575,1.8565,1.8544,1.854,1.8536,1.8538,1.8574,1.8574,1.8589,1.859,1.859]},{"header":{"parameterUnit":"m.s-1","parameterCategory":1,"la1":30.2991,"la2":30.254,"lo1":-89.0895,"lo2":-89.0444,"dy":0.0017,"dx":0.0017,"nx":28,"ny":28,"refTime":"2024-03-25T03:00:00:Z","depth":0,"parameterNumber":3,"parameterNumberName":"V-component_of_WINDS"},"data":[0,0,0,0,0,0,0,0,0,0,0,0,0,0,0,0,0,0,0,0,0,0,0,0,0,0,0,0,0,0,0,0,0,0,0,0,0,0,0,0,0,0,0,0,0,0,0,0,0,0,0,0,0,0,0,0,0,0,0.4002,0.4004,0,0.4196,0.4198,0.42,0.4211,0.4209,0.4207,0.4205,0.4408,0.4415,0.4423,0,0,0,0,0,0,0,0,0,0,0,0,0,0.3644,0.3651,0.4002,0.4004,0.4007,0.4196,0.4198,0.4201,0.4212,0.4209,0.4206,0.4204,0.4406,0.4415,0.4424,0,0,0,0,0,0,0,0,0,0,0,0,0,0.3815,0.3653,0.4002,0.4035,0.404,0.4195,0.4198,0.4202,0.4212,0.4209,0.4205,0.4202,0.4403,0.4414,0.4425,0.4562,0,0,0.4459,0.4464,0,0,0,0,0,0,0,0,0.3805,0.3828,0.4028,0.4033,0.4039,0.4176,0.4147,0.4322,0.4213,0.4147,0.4205,0.4201,0.4334,0.4351,0.4395,0.4571,0.458,0.446,0.4467,0.4472,0.4475,0,0,0,0,0,0,0,0.3793,0.382,0.4079,0.403,0.4037,0.4041,0.4062,0.418,0.4257,0.4152,0.4154,0.4176,0.4336,0.4384,0.4399,0.4583,0.446,0.447,0.4477,0.4481,0.4878,0.4882,0,0,0,0,0,0,0.3775,0.381,0.4073,0.4085,0.3911,0.405,0.4073,0.4135,0.4256,0.4271,0.4179,0.4176,0.4366,0.4386,0.4407,0.4573,0.4472,0.4482,0.4489,0.4875,0.4879,0.4883,0,0,0,0,0,0,0.3767,0.3798,0.4065,0.3948,0.3982,0.406,0.413,0.4141,0.4188,0.4276,0.429,0.4213,0.4364,0.4391,0.4522,0.458,0.4487,0.4498,0.487,0.4876,0.4881,0.4908,0,0,0,0,0,0,0.3756,0.3795,0.3848,0.3949,0.3988,0.4177,0.4133,0.4147,0.4207,0.4205,0.4311,0.4326,0.4364,0.4505,0.4533,0.4594,0.4506,0.4865,0.4873,0.488,0.4903,0.4914,0.4924,0,0,0,0,0,0.3744,0.3849,0.385,0.3882,0.4055,0.418,0.4203,0.4243,0.4212,0.4265,0.4321,0.4322,0.4569,0.4518,0.455,0.4616,0.4862,0.4871,0.4879,0.4898,0.4912,0.4924,0,0,0,0,0,0,0.3756,0.3863,0.3866,0.4007,0.4084,0.4182,0.4251,0.4257,0.4346,0.4341,0.4388,0.4411,0.4541,0.4591,0.4533,0.4753,0.4712,0.4727,0.4715,0.473,0.474,0.4726,0.4516,0,0,0,0,0,0.3774,0.3866,0.3955,0.4071,0.4109,0.4173,0.4229,0.4252,0.4335,0.4368,0.4434,0.4515,0.461,0.4673,0.4766,0.4909,0.4932,0.4969,0.498,0.4989,0.5002,0.5079,0.5097,0.4911,0.4911,0.4911,0,0,0.3815,0.3885,0.394,0.4075,0.4138,0.4231,0.4201,0.4302,0.4372,0.4385,0.4512,0.4562,0.4655,0.4793,0.4857,0.4839,0.5057,0.4999,0.5006,0.5014,0.509,0.5107,0.5123,0.4917,0.4916,0.4915,0,0,0.3937,0.3999,0.4101,0.4163,0.4257,0.4298,0.4322,0.4419,0.4452,0.458,0.459,0.4674,0.4838,0.4903,0.4958,0.51,0.5104,0.5129,0.5186,0.5261,0.5275,0.5289,0.5338,0.5356,0.5141,0.5141,0.5141,0,0.3977,0.4117,0.4154,0.4254,0.4313,0.4324,0.4428,0.4487,0.4608,0.4648,0.4625,0.4829,0.4893,0.5045,0.5078,0.5123,0.5152,0.5118,0.527,0.5284,0.5297,0.5344,0.5363,0.5144,0.5143,0.5143,0.5143,0,0.416,0.4257,0.4329,0.4441,0.4508,0.4609,0.4662,0.4725,0.4741,0.4784,0.4913,0.4989,0.5097,0.5134,0.5153,0.5288,0.5274,0.526,0.522,0.5316,0.5362,0.538,0.5147,0.5146,0.5145,0.5145,0,0,0.4299,0.4427,0.4453,0.4502,0.4605,0.4681,0.4782,0.4885,0.4937,0.5019,0.5105,0.5241,0.5228,0.529,0.5315,0.5381,0.5486,0.5359,0.5362,0.538,0.5639,0.5648,0.5669,0.5489,0.5493,0.5496,0.563,0,0.4432,0.4611,0.4645,0.4801,0.489,0.4901,0.4989,0.5061,0.5103,0.5186,0.5233,0.5328,0.5304,0.5341,0.5406,0.546,0.5539,0.545,0.557,0.5574,0.5547,0.5693,0.5705,0.5829,0.5649,0.5652,0.5654,0,0.4612,0.4694,0.4858,0.4945,0.4984,0.5063,0.5158,0.5236,0.5318,0.5344,0.541,0.5428,0.5533,0.5486,0.5632,0.557,0.5621,0.5654,0.566,0.5673,0.562,0.5711,0.5869,0.5888,0.5683,0.568,0.5678,0,0.4696,0.4848,0.4965,0.5008,0.5113,0.5167,0.5213,0.5291,0.535,0.5433,0.5471,0.5566,0.5618,0.5691,0.5733,0.5696,0.5875,0.5833,0.59,0.5899,0.5939,0.5936,0.6108,0.597,0.597,0.5969,0.5969,0,0.4842,0.4942,0.5004,0.5076,0.5188,0.5225,0.5335,0.5381,0.5449,0.553,0.5545,0.5622,0.5672,0.5755,0.5789,0.5903,0.5927,0.5951,0.5959,0.595,0.5947,0.5985,0.5977,0.5974,0.5973,0.5972,0.5971,0,0.4956,0.5001,0.5129,0.5216,0.524,0.5318,0.5393,0.5464,0.5504,0.5606,0.5633,0.5697,0.5795,0.5843,0.5966,0.5988,0.6118,0.612,0.609,0.6093,0.6157,0.615,0.636,0.6389,0.6232,0.6233,0.6234,0,0.5046,0.5122,0.5216,0.527,0.5317,0.5405,0.5463,0.5502,0.5563,0.5658,0.5717,0.5815,0.5896,0.6053,0.6111,0.6204,0.6209,0.6275,0.6223,0.6211,0.6209,0.6204,0.6212,0.6285,0.6287,0.6288,0.6289,0,0.5201,0.5219,0.5301,0.5391,0.5459,0.5533,0.5605,0.5649,0.5699,0.5766,0.5865,0.5928,0.6051,0.6148,0.6245,0.6293,0.63,0.6304,0.6325,0.6317,0.6296,0.6308,0.6115,0.63,0.6299,0.6298,0.6298,0.6297,0.5306,0.5373,0.5449,0.554,0.5597,0.5663,0.5732,0.5779,0.5862,0.5964,0.5982,0.6087,0.6164,0.6294,0.6345,0.6427,0.6413,0.6443,0.645,0.6457,0.646,0.6282,0.6445,0.6445,0.6445,0.6445,0.6444,0,0.5462,0.5509,0.5592,0.5691,0.5762,0.5758,0.5837,0.5897,0.5988,0.6058,0.6136,0.6249,0.6342,0.6405,0.65,0.6554,0.6559,0.6577,0.6574,0.6585,0.6468,0.6441,0.6571,0.6571,0.6571,0.6571,0.6571,0.6571,0.5551,0.5664,0.569,0.5831,0.5878,0.5979,0.6024,0.6085,0.6141,0.6265,0.6341,0.6381,0.6448,0.6547,0.6632,0.6648,0.6682,0.67,0.6716,0.6607,0.6593,0.6581,0.6555,0.6707,0.6708,0.6826,0.6827,0.6828]}]]